Weather History for Cincinnati, OH

Change the Weather History Date:

Monday, January 21, 2013

  Actual Average Record
Temperature  
Mean Temperature 22 °F -  
Max Temperature 28 °F 38 °F 68 °F (1959)
Min Temperature 15 °F 23 °F -12 °F (1985)
Degree Days  
Heating Degree Days 44    
Moisture  
Dew Point 9 °F    
Average Humidity 55    
Maximum Humidity 69    
Minimum Humidity 42    
Precipitation  
Precipitation 0.00 in - - ()
Sea Level Pressure  
Sea Level Pressure 30.19 in    
Wind  
Wind Speed 10 mph (WNW)    
Max Wind Speed 18 mph    
Max Gust Speed 29 mph    
Visibility 9 miles    
Events Snow    
Averages and records for this station are not official NWS values.
T = Trace of Precipitation, MM = Missing Value Source: NWS Daily Summary

Daily Weather History Graph

Daily Weather History Graph

Search for Another Location

Airport:

Trip Planner

Search our weather history database for the weather conditions in past years. The results will help you decide how hot, cold, wet, or windy it might be!

Date:

Astronomy

Jan. 21, 2013 Rise Set
Actual Time 7:52 AM EST 5:46 PM EST
Civil Twilight 7:23 AM EST 6:15 PM EST
Nautical Twilight 6:50 AM EST 6:47 PM EST
Astronomical Twilight 6:19 AM EST 7:19 PM EST
Moon 1:25 PM EST (1/21) 3:19 AM EST (1/21)
Length of Visible Light 10h 51m
Length of Day
9h 53m
Waxing Gibbous, 75% of the Moon is Illuminated
Jan 21
Waxing Gibbous
Jan 26
Full
Feb 3
Last Quarter
Feb 10
New
Feb 17
First Quarter

Hourly Weather History & Observations

Time (EST) Temp. Windchill Dew Point Humidity Pressure Visibility Wind Dir Wind Speed Gust Speed Precip Events Conditions
12:53 AM 28.0 °F 20.8 °F 12.0 °F 51% 30.20 in 10.0 mi NNW 6.9 mph - N/A   Overcast
1:53 AM 27.0 °F 21.6 °F 12.9 °F 56% 30.18 in 10.0 mi NNW 4.6 mph - N/A   Overcast
2:53 AM 27.0 °F 23.0 °F 12.9 °F 56% 30.17 in 10.0 mi NW 3.5 mph - N/A   Overcast
3:53 AM 27.0 °F 23.0 °F 12.0 °F 53% 30.17 in 10.0 mi NW 3.5 mph - N/A   Overcast
4:53 AM 26.1 °F 19.4 °F 12.9 °F 58% 30.16 in 10.0 mi West 5.8 mph - N/A   Overcast
5:53 AM 26.1 °F 18.4 °F 14.0 °F 60% 30.16 in 10.0 mi West 6.9 mph - N/A   Overcast
6:53 AM 25.0 °F 18.1 °F 15.1 °F 66% 30.15 in 10.0 mi West 5.8 mph - N/A   Overcast
7:53 AM 25.0 °F 13.6 °F 16.0 °F 69% 30.16 in 10.0 mi WNW 12.7 mph - N/A   Mostly Cloudy
8:53 AM 26.1 °F 15.6 °F 16.0 °F 66% 30.16 in 10.0 mi West 11.5 mph - N/A   Overcast
9:29 AM 24.8 °F 12.9 °F 15.8 °F 69% 30.15 in 10.0 mi West 13.8 mph - 0.00 in Snow Light Snow
9:53 AM 26.1 °F 14.0 °F 15.1 °F 63% 30.16 in 10.0 mi West 15.0 mph - 0.00 in   Mostly Cloudy
10:53 AM 26.1 °F 14.0 °F 12.9 °F 58% 30.15 in 10.0 mi West 15.0 mph 20.7 mph N/A   Mostly Cloudy
11:53 AM 26.1 °F 13.6 °F 10.0 °F 51% 30.15 in 10.0 mi West 16.1 mph 28.8 mph N/A   Overcast
12:25 PM 24.8 °F 11.5 °F 15.8 °F 69% 30.13 in 2.5 mi West 17.3 mph 25.3 mph 0.00 in Snow Light Snow
12:33 PM 24.8 °F 11.5 °F 14.0 °F 64% 30.13 in 4.0 mi West 17.3 mph 25.3 mph 0.00 in Snow Light Snow
12:53 PM 24.1 °F 11.0 °F 12.9 °F 62% 30.15 in 9.0 mi WNW 16.1 mph 26.5 mph 0.00 in Snow Light Snow
1:53 PM 24.1 °F 11.0 °F 8.1 °F 51% 30.16 in 10.0 mi West 16.1 mph 26.5 mph 0.00 in   Overcast
2:53 PM 23.0 °F 9.2 °F 3.9 °F 44% 30.17 in 10.0 mi WNW 17.3 mph 23.0 mph N/A   Mostly Cloudy
3:53 PM 23.0 °F 8.7 °F 3.0 °F 42% 30.18 in 10.0 mi West 18.4 mph 25.3 mph N/A   Partly Cloudy
4:53 PM 21.9 °F 9.8 °F 1.9 °F 42% 30.19 in 10.0 mi WNW 12.7 mph 21.9 mph N/A   Partly Cloudy
5:53 PM 19.9 °F 5.7 °F 1.0 °F 44% 30.22 in 10.0 mi West 16.1 mph 21.9 mph N/A   Partly Cloudy
6:53 PM 19.0 °F 8.2 °F -0.0 °F 43% 30.23 in 10.0 mi WNW 9.2 mph 18.4 mph N/A   Clear
7:53 PM 17.1 °F 4.3 °F -0.0 °F 47% 30.25 in 10.0 mi West 11.5 mph 20.7 mph N/A   Clear
8:53 PM 16.0 °F 0.6 °F 1.0 °F 52% 30.27 in 10.0 mi West 16.1 mph 24.2 mph N/A   Clear
9:53 PM 15.1 °F 1.8 °F -0.0 °F 51% 30.29 in 10.0 mi WNW 11.5 mph 23.0 mph N/A   Clear
10:53 PM 15.1 °F -1.1 °F -0.0 °F 51% 30.30 in 10.0 mi West 17.3 mph 25.3 mph N/A   Mostly Cloudy
11:53 PM 15.1 °F 3.3 °F 3.0 °F 59% 30.31 in 7.0 mi West 9.2 mph 20.7 mph 0.00 in Snow Light Snow